Regional Weather Roundup
Issued by NWS

Home | Current Version | Previous Version | Text Only | Print | Product List | Glossary On
Versions: 1 2 3 4 5 6 7 8 9 10 11 12 13 14 15 16 17 18 19 20 21 22 23 24 25 26 27 28 29 30 31 32 33 34 35 36 37 38 39 40 41 42 43 44 45 46 47 48 49 50
369
ASUS43 KTOP 271308
RWRKS

WEATHER ROUNDUP FOR KANSAS
NATIONAL WEATHER SERVICE GOODLAND KS
700 AM CST MON FEB 27 2017

NOTE:  "FAIR" INDICATES FEW OR NO CLOUDS BELOW 12,000 FEET WITH NO
SIGNIFICANT WEATHER AND/OR OBSTRUCTIONS TO VISIBILITY.

KSZ001>006-013>018-027>032-041>047-271400-
NORTHWEST KANSAS

CITY           SKY/WX    TMP DP  RH WIND       PRES   REMARKS
GOODLAND       CLOUDY    25  22  88 S13       29.77F WCI  14
HAYS           CLEAR     24  18  77 E3        29.90F
HILL CITY      CLEAR     20  15  81 CALM      29.88F
RUSSELL        CLEAR     28  22  78 S12       29.89S WCI  18
$$

KSZ061>065-074>080-084>089-271400-
SOUTHWEST KANSAS

CITY           SKY/WX    TMP DP  RH WIND       PRES   REMARKS
DODGE CITY     CLEAR     24  21  88 S9        29.84F
ELKHART          N/A     30   8  39 SW9         N/A
GARDEN CITY    CLOUDY    24  20  84 SE8       29.81F
GREAT BEND     CLEAR     26  22  84 SE5       29.90S
LIBERAL        CLOUDY    21  14  73 SW8       29.83R
PRATT          CLEAR     26  22  86 SE5       29.89S
$$

KSZ066>073-081>083-090>101-271400-
SOUTHEAST KANSAS

CITY           SKY/WX    TMP DP  RH WIND       PRES   REMARKS
CHANUTE        PTCLDY    28  26  92 E6        30.01S
COFFEYVILLE    CLEAR     30  29  96 CALM      30.01S
HUTCHINSON     CLEAR     32  27  81 SE10      29.93F WCI  24
MEDICINE LODGE   N/A     32  27  81 E7        29.90F
NEWTON         CLEAR     31  28  89 E10       29.95F WCI  22
PARSONS        CLEAR     33  29  85 E5        30.01S
WICHITA INTL   PTCLDY    34  29  82 E12       29.94F WCI  25
WICHITA JABRA  CLEAR     28  26  92 SE6       29.95F
WICHITA MCCONL CLEAR     33  28  81 SE12      29.94F WCI  24
WINFIELD       CLEAR     35  29  78 E6        29.96F
$$

KSZ007>012-019>026-033>040-048>060-102>105-271400-
NORTHEAST KANSAS

CITY           SKY/WX    TMP DP  RH WIND       PRES   REMARKS
CONCORDIA      CLEAR     26  21  81 SE5       29.93S
EMPORIA        FOG       24  23  96 S7        29.99S VSB 1/4
LAWRENCE       FOG       25  25 100 SE3       30.02S VSB<1/4
MANHATTAN      CLEAR     21  17  84 CALM      29.98S
MARYSVILLE     CLEAR     25  21  86 CALM      29.96S
OLATHE IND     FOG       28  27  96 SE7       30.02S VSB 1/4
OLATHE EXE     FOG       26  26 100 SE3       30.01F VSB 1/4
SALINA         CLEAR     28  23  81 SE9       29.95S
TOPEKA BILLARD FOG       25  25 100 CALM      30.01S VSB 1/4
TOPEKA FORBES  FOG       29  26  89 SE7       30.00R VSB 1/4
$$




USA.gov is the U.S. government's official web portal to all federal, state and local government web resources and services.